LRBO Weather Reports


Display with metric or nautical units.
time (UTC)temp
F
wind
direction
speed
MPH
gust
MPH
rain 1hr
in
rain 24hr
in
rain mn
in
humidity
%
barometer
mb
20260509061847 55 50 11.0 0.0 0.00 0.00 0.00 100 1016.0
20260509060353 0 0.0 0.0 0.00 0.00 0.00
20260509054847 54 40 11.0 0.0 0.00 0.00 0.00 94 1015.0
20260509053353 54 40 11.0 0.0 0.00 0.00 0.00 94 1015.0
20260509051850 54 40 11.0 0.0 0.00 0.00 0.00 94 1015.0
20260509050353 54 40 11.0 0.0 0.00 0.00 0.00 94 1015.0
20260509044851 54 40 11.0 0.0 0.00 0.00 0.00 100 1015.0
20260509043354 54 40 11.0 0.0 0.00 0.00 0.00 100 1015.0
20260509041848 54 40 11.0 0.0 0.00 0.00 0.00 100 1015.0
20260509040354 54 40 11.0 0.0 0.00 0.00 0.00 100 1015.0
20260509034851 54 40 9.0 0.0 0.00 0.00 0.00 100 1015.0
20260509033353 54 40 9.0 0.0 0.00 0.00 0.00 100 1015.0
20260509031848 54 40 9.0 0.0 0.00 0.00 0.00 100 1015.0
20260509030354 54 40 9.0 0.0 0.00 0.00 0.00 100 1015.0
20260509024844 52 3.0 0.0 0.00 0.00 0.00 100 1014.0
20260509023350 52 3.0 0.0 0.00 0.00 0.00 100 1014.0
20260509021850 0 0.0 0.0 0.00 0.00 0.00
20260509020354 0 0.0 0.0 0.00 0.00 0.00
20260509014851 54 3.0 0.0 0.00 0.00 0.00 100 1014.0
20260509013351 54 3.0 0.0 0.00 0.00 0.00 100 1014.0
20260509011851 54 3.0 0.0 0.00 0.00 0.00 100 1014.0
20260509010353 54 3.0 0.0 0.00 0.00 0.00 100 1014.0
20260509004853 54 3.0 0.0 0.00 0.00 0.00 100 1014.0
20260509003353 54 3.0 0.0 0.00 0.00 0.00 100 1015.0
20260509001851 54 3.0 0.0 0.00 0.00 0.00 100 1015.0
20260509000355 54 3.0 0.0 0.00 0.00 0.00 100 1015.0
20260508234850 59 20 7.0 0.0 0.00 0.00 0.00 88 1016.0
20260508233353 59 20 7.0 0.0 0.00 0.00 0.00 88 1016.0
20260508231851 59 20 7.0 0.0 0.00 0.00 0.00 88 1016.0
20260508230353 0 0.0 0.0 0.00 0.00 0.00
20260508224850 61 40 7.0 0.0 0.00 0.00 0.00 88 1016.0
20260508223354 61 40 7.0 0.0 0.00 0.00 0.00 88 1016.0
20260508221851 61 40 7.0 0.0 0.00 0.00 0.00 88 1016.0
20260508220354 61 40 7.0 0.0 0.00 0.00 0.00 88 1016.0
20260508214853 61 40 7.0 0.0 0.00 0.00 0.00 88 1016.0
20260508213353 61 3.0 0.0 0.00 0.00 0.00 83 1016.0
20260508211850 61 3.0 0.0 0.00 0.00 0.00 83 1016.0
20260508210353 61 3.0 0.0 0.00 0.00 0.00 83 1016.0
20260508204847 0 0.0 0.0 0.00 0.00 0.00
20260508203350 0 0.0 0.0 0.00 0.00 0.00
20260508201848 0 0.0 0.0 0.00 0.00 0.00
20260508200350 0 0.0 0.0 0.00 0.00 0.00
20260508194848 63 40 7.0 0.0 0.00 0.00 0.00 88 1015.0
20260508193354 63 40 7.0 0.0 0.00 0.00 0.00 88 1015.0
20260508191851 63 40 7.0 0.0 0.00 0.00 0.00 88 1015.0
20260508190354 63 40 7.0 0.0 0.00 0.00 0.00 88 1015.0
20260508184853 66 30 7.0 0.0 0.00 0.00 0.00 78 1014.0
20260508183354 66 30 7.0 0.0 0.00 0.00 0.00 78 1014.0
20260508181856 66 30 7.0 0.0 0.00 0.00 0.00 78 1014.0
20260508180353 66 30 7.0 0.0 0.00 0.00 0.00 78 1014.0
20260508174851 68 40 7.0 0.0 0.00 0.00 0.00 73 1014.0
20260508173353 68 40 7.0 0.0 0.00 0.00 0.00 73 1014.0
20260508171854 68 40 7.0 0.0 0.00 0.00 0.00 73 1014.0
20260508170354 68 40 7.0 0.0 0.00 0.00 0.00 73 1014.0
20260508164854 70 3.0 0.0 0.00 0.00 0.00 64 1014.0
20260508163354 70 3.0 0.0 0.00 0.00 0.00 64 1014.0
20260508161853 70 3.0 0.0 0.00 0.00 0.00 64 1014.0
20260508160353 70 3.0 0.0 0.00 0.00 0.00 64 1014.0
20260508154854 72 340 14.0 0.0 0.00 0.00 0.00 57 1014.0
20260508153353 72 340 14.0 0.0 0.00 0.00 0.00 57 1014.0
20260508151854 72 340 14.0 0.0 0.00 0.00 0.00 57 1014.0
20260508150354 72 340 14.0 0.0 0.00 0.00 0.00 57 1014.0
20260508144854 75 190 9.0 0.0 0.00 0.00 0.00 50 1014.0
20260508143353 75 190 9.0 0.0 0.00 0.00 0.00 50 1014.0
20260508141853 75 190 9.0 0.0 0.00 0.00 0.00 50 1014.0
20260508140353 75 190 9.0 0.0 0.00 0.00 0.00 50 1014.0
20260508135015 0 0.0 0.0 0.00 0.00 0.00
20260508133350 77 180 11.0 0.0 0.00 0.00 0.00 51 1014.0
20260508131854 77 180 11.0 0.0 0.00 0.00 0.00 51 1014.0
20260508130354 77 180 11.0 0.0 0.00 0.00 0.00 51 1014.0
20260508124853 75 180 11.0 0.0 0.00 0.00 0.00 54 1015.0
20260508123353 75 180 11.0 0.0 0.00 0.00 0.00 54 1015.0
20260508121901 75 180 11.0 0.0 0.00 0.00 0.00 54 1015.0
20260508120353 75 180 11.0 0.0 0.00 0.00 0.00 54 1015.0
20260508114853 72 160 11.0 0.0 0.00 0.00 0.00 65 1015.0
20260508113353 72 160 11.0 0.0 0.00 0.00 0.00 65 1015.0
20260508111854 72 160 11.0 0.0 0.00 0.00 0.00 65 1015.0
20260508110353 72 160 11.0 0.0 0.00 0.00 0.00 65 1015.0
20260508104852 70 160 7.0 0.0 0.00 0.00 0.00 69 1016.0
20260508103415 0 0.0 0.0 0.00 0.00 0.00
20260508101854 70 160 7.0 0.0 0.00 0.00 0.00 69 1016.0
20260508100354 70 160 7.0 0.0 0.00 0.00 0.00 69 1016.0
20260508094854 66 140 7.0 0.0 0.00 0.00 0.00 73 1016.0
20260508093353 66 140 7.0 0.0 0.00 0.00 0.00 73 1016.0
20260508091853 66 140 7.0 0.0 0.00 0.00 0.00 73 1016.0
20260508090353 66 140 7.0 0.0 0.00 0.00 0.00 73 1016.0
20260508084853 59 140 5.0 0.0 0.00 0.00 0.00 82 1016.0
20260508083353 59 140 5.0 0.0 0.00 0.00 0.00 82 1016.0
20260508081854 59 140 5.0 0.0 0.00 0.00 0.00 82 1016.0
20260508080353 59 140 5.0 0.0 0.00 0.00 0.00 82 1016.0
20260508074850 55 3.0 0.0 0.00 0.00 0.00 88 1016.0
20260508073354 55 3.0 0.0 0.00 0.00 0.00 88 1016.0
20260508071851 55 3.0 0.0 0.00 0.00 0.00 88 1016.0
20260508070354 55 3.0 0.0 0.00 0.00 0.00 88 1016.0
20260508064854 54 2.0 0.0 0.00 0.00 0.00 94 1016.0
20260508063354 54 2.0 0.0 0.00 0.00 0.00 94 1016.0